ロニオス-ヒル彗星

409P/LONEOS-Hill (2021)

English version
Home page
Updated on February 20, 2021

---------------------------------------------------------------------

・ プロフィール

符号 409P/2020 V1
検出日 2020年11月16日
検出光度 18.7等
検出者 D. Rankin (Mt. Lemmon Survey)

・ 写真集

・ 軌道要素

Epoch 2021 Jan. 26.0 TT = JDT 2459240.5
T 2021 Jan. 28.17146 TT                                 Rudenko
q   1.7540445            (2000.0)            P               Q
n   0.06622122     Peri.   15.13653     -0.92551827     -0.33616646
a   6.0506860      Node   143.67104     +0.30964839     -0.93684777
e   0.7101082      Incl.   17.11857     +0.21802251     -0.09647992
P  14.9
From 830 observations 2005 Dec. 4-2021 Jan. 27, mean residual 0".8.

・ 星図

・ 光度変化

        m1 = 9.0 + 5 logΔ + 27.0 log r(t - 10)

---------------------------------------------------------------------

軌道要素はM.P.E.C. 2021-B143に掲載されたものです。
星図はステラナビゲータ Ver.10 (アストロアーツ) で作成したものです。
光度グラフはComet for Windowsで作成したものです。

---------------------------------------------------------------------

Copyright(C) Seiichi Yoshida (comet@aerith.net). All rights reserved.